Regional Weather Roundup
Issued by NWS

Home | Current Version | Previous Version | Graphics & Text | Print | Product List | Glossary On
Versions: 1 2 3 4 5 6 7 8 9 10 11 12 13 14 15 16 17 18 19 20 21 22 23 24 25 26 27 28 29 30 31 32 33 34 35 36 37 38 39 40 41 42 43 44 45 46 47 48 49 50
552
ASUS43 KTOP 072008
RWRKS

WEATHER ROUNDUP FOR KANSAS
NATIONAL WEATHER SERVICE GOODLAND KS
200 PM CST SUN FEB 07 2016

NOTE:  "FAIR" INDICATES FEW OR NO CLOUDS BELOW 12,000 FEET WITH NO
SIGNIFICANT WEATHER AND/OR OBSTRUCTIONS TO VISIBILITY.

KSZ001>006-013>018-027>032-041>047-072100-
NORTHWEST KANSAS

CITY           SKY/WX    TMP DP  RH WIND       PRES   REMARKS
GOODLAND       MOSUNNY   37  21  52 NW22G32   30.27F WCI  26
HAYS           PTSUNNY   45  25  45 W18       30.21F
HILL CITY      CLOUDY    41  27  57 NW18G25   30.22F
RUSSELL        CLOUDY    44  29  55 NW16      30.19F
$$

KSZ061>065-074>080-084>089-072100-
SOUTHWEST KANSAS

CITY           SKY/WX    TMP DP  RH WIND       PRES   REMARKS
DODGE CITY     MOSUNNY   47  20  34 N21G30    30.26S
ELKHART          N/A     50  16  26 N13         N/A
GARDEN CITY    SUNNY     47  20  34 N28G33    30.28F
GREAT BEND     PTSUNNY   46  25  42 NW22G28   30.22S
LIBERAL        SUNNY     52  19  28 N22G28    30.26F
PRATT          PTSUNNY   49  17  27 N25       30.21S
$$

KSZ066>073-081>083-090>101-072100-
SOUTHEAST KANSAS

CITY           SKY/WX    TMP DP  RH WIND       PRES   REMARKS
CHANUTE        CLOUDY    55  19  24 NW20G30   30.09F
COFFEYVILLE    SUNNY     57  26  30 NW16      30.10F
HUTCHINSON     CLOUDY    54  21  27 N18G25    30.17F
MEDICINE LODGE   N/A     56  22  26 N16G29    30.18F
NEWTON         MOSUNNY   52  21  30 N28G37    30.16F
PARSONS        SUNNY     58  20  22 NW23      30.09F
WICHITA INTL   MOSUNNY   57  21  24 N17G30    30.14F
WICHITA JABRA  SUNNY     55  21  26 N28G35    30.14F
WICHITA MCCONL SUNNY     55  22  27 N21G30    30.14F
WINFIELD       SUNNY     57  21  24 N18G30    30.14F
$$

KSZ007>012-019>026-033>040-048>060-102>105-072100-
NORTHEAST KANSAS

CITY           SKY/WX    TMP DP  RH WIND       PRES   REMARKS
CONCORDIA      SUNNY     47  25  42 NW18G32   30.11F
EMPORIA        SUNNY     53  18  25 NW26G40   30.08F
LAWRENCE       CLOUDY    53  25  33 NW22G31   30.04F
MANHATTAN      PTSUNNY   52  22  30 NW15G31   30.10F
MARYSVILLE     SUNNY     48  23  37 NW23G33   30.06F
OLATHE IND     CLOUDY    51  24  34 NW20G29   30.03F
OLATHE EXE     CLOUDY    51  19  28 NW21G33   30.02F
SALINA         CLOUDY    54  19  25 NW25G36   30.14F
TOPEKA BILLARD MOSUNNY   51  22  31 NW26G36   30.06F
TOPEKA FORBES  MOSUNNY   53  22  29 NW24G35   30.05F
$$




USA.gov is the U.S. government's official web portal to all federal, state and local government web resources and services.